Location: Le Rocchette
(44.3500°N, 7.8333°E)
Time: 12:37:23
(UTC+00:00)

Cosmos 1833 Rocket - Pass Details

Date: 17 November 2019
Orbit: 832 x 840 km, 71.0° (Epoch: 14 December)

Event Time Altitude Azimuth Distance (km) Brightness Sun altitude
Exits shadow 04:41:06 19° 327° (NNW) 1,876 4.1 -18.8°
Drops below altitude 10° 04:44:12 10° 360° (N) 2,454 5.0 -18.2°
Sets 04:47:19 0° 17° (NNE) 3,393 5.9 -17.7°
